STARLINK-1400, 45700

Orbit data source: Space-Track

STARLINK-1400, 45700 is a payload satellite owned by SpaceX/Seattle (US) in LEO that was launched on Thu, 04 Jun 2020 UTC via an FALCON 9 launch vehicle from the Air Force Eastern Test Range (AFETR). Payload-class satellites include a variety of spacecraft equipped with specific instruments for various scientific and technological missions. These include communications satellites like Starlink; space stations such as the ISS; scientific satellites like the Hubble; Earth observation satellites from companies like Planet Labs, Umbra, and HawkEye 360; GPS; miniature CubeSats for education and research; and military/defense satellites.

Loading next visibility...
Identifier
45700, 2020-035AV
Orbit
LEO
Country
Flag of USUS
Related business
Manufacturer
SpaceX/Seattle
Mission
Operational Commercial Communications
Bus & Motor
STARLINK, Unknown motor
Mass
260 kg wet, ~248 kg dry
Launch date (UTC)
2020-06-04 (6 years ago)
Launch vehicle
FALCON 9
Launch site
Air Force Eastern Test Range (AFETR)
Object type
Payload
Rocket body
Debris
Shape & HBR
Box + 1 Pan, 10.1 m
Radar Cross Section
13.562 m², Large (>1 m²)

Expand to show TLE details & history
Last TLE update: 6 hours ago

TLE from 6 hours ago
0 STARLINK-1400
1 45700U 20035AV  26036.91670139  .00131183  00000-0  27172-2 0  9997
2 45700  53.0537 174.8492 0002979 340.2540  35.7961 15.44822462  5735
Epoch: 2026-02-05T22:00Z
TLE epoch observation values (Epoch: 2026-02-05T22:00:03.000Z)
Latitude
12.78109°
Longitude
78.54266°
Altitude
430.386 km
Speed
7.657 km/s
True Right ascension
12h 18m 28s
True Declination
12° 42' 13"
Sunlit
Object was in full shadow at epoch
Visualization orbit readout
Latitude
Unknown
Longitude
Unknown
Altitude
Unknown
Speed
Unknown
Apparent Right ascension
Unknown
Apparent Declination
Unknown
Sunlit
N/A
Visualization observer readout
Local Sidereal Time
06:30:55
Azimuth
Unknown
Elevation
Unknown
Doppler factor
Unknown
Orbital elements
Apogee altitude
434.204 km
Perigee altitude
430.146 km
Semi-major axis
6,810.312 km
Eccentricity
0.0003
Inclination
53.0537°
RAAN
174.8492°
Arg. of periapsis
340.254°
True anomaly
35.81607°
Mean anomaly
35.7961°
Eccentric anomaly
35.80609°
Mean motion
3.86183 °/min
Orbital period
93.22 mins
BSTAR
0.0027172
Loading maneuver chart data...
Computing Atmospheric mass density...
Loading historical data...
Loading historical data...
Loading historical data...
Loading historical data...
Loading historical data...
Loading historical data...
Loading historical data...

Documentation

Showing up to 5 results
|